EW7512 Weather Reports


Display with metric or nautical units.
time (UTC)temp
F
wind
direction
speed
MPH
gust
MPH
rain 1hr
in
rain 24hr
in
rain mn
in
humidity
%
barometer
mb
20260504050540 51 300 0.0 2.0 0.00 0.04 0.00 75 1021.0
20260504050104 51 299 0.0 2.0 0.00 0.04 0.00 77 1021.0
20260504045537 50 360 0.0 2.0 0.00 0.19 0.00 78 1020.9
20260504045037 49 300 0.0 1.0 0.00 0.19 0.00 78 1020.9
20260504044534 48 360 0.0 1.0 0.00 0.19 0.00 79 1020.9
20260504044033 48 298 0.0 1.0 0.00 0.19 0.00 79 1020.8
20260504043534 47 298 0.0 1.0 0.00 0.19 0.00 81 1020.8
20260504043030 47 298 0.0 1.0 0.00 0.19 0.00 82 1020.8
20260504042530 46 298 0.0 1.0 0.00 0.19 0.00 81 1020.8
20260504042026 46 298 0.0 1.0 0.00 0.19 0.00 81 1020.8
20260504041525 46 298 0.0 0.0 0.00 0.19 0.00 80 1020.8
20260504041023 45 298 0.0 1.0 0.00 0.19 0.00 81 1020.7
20260504040523 45 298 0.0 1.0 0.00 0.19 0.00 81 1020.6
20260504040021 45 298 0.0 1.0 0.00 0.19 0.00 82 1020.7
20260504035520 44 298 0.0 1.0 0.00 0.20 0.00 81 1020.6
20260504035023 45 298 0.0 2.0 0.00 0.20 0.00 80 1020.5
20260504034534 45 298 0.0 3.0 0.00 0.20 0.00 80 1020.4
20260504034022 45 355 0.0 1.0 0.00 0.20 0.00 81 1020.5
20260504033521 45 355 0.0 4.0 0.00 0.20 0.00 81 1020.5
20260504033023 45 355 0.0 4.0 0.00 0.20 0.00 80 1020.5
20260504032516 45 325 0.0 2.0 0.00 0.20 0.00 79 1020.5
20260504032016 45 306 0.0 2.0 0.00 0.20 0.00 79 1020.5
20260504031516 45 306 0.0 1.0 0.00 0.20 0.00 78 1020.5
20260504031015 46 306 0.0 1.0 0.00 0.20 0.00 78 1020.5
20260504030515 46 306 0.0 2.0 0.00 0.20 0.00 78 1020.6
20260504030017 46 306 0.0 4.0 0.00 0.20 0.00 78 1020.6
20260504025516 46 284 1.0 4.0 0.00 0.20 0.00 78 1020.6
20260504025015 45 322 0.0 0.0 0.00 0.20 0.00 78 1020.6
20260504024516 45 322 0.0 0.0 0.00 0.20 0.00 78 1020.6
20260504024017 45 319 0.0 0.0 0.00 0.20 0.00 77 1020.5
20260504023514 46 320 0.0 0.0 0.00 0.20 0.00 76 1020.5
20260504023014 46 320 0.0 0.0 0.00 0.20 0.00 76 1020.5
20260504022516 46 320 0.0 2.0 0.00 0.20 0.00 76 1020.5
20260504022014 46 321 0.0 2.0 0.00 0.20 0.00 76 1020.5
20260504021513 46 321 0.0 3.0 0.00 0.20 0.00 75 1020.6
20260504021012 46 336 0.0 3.0 0.00 0.20 0.00 75 1020.6
20260504020513 46 336 0.0 3.0 0.00 0.20 0.00 76 1020.5
20260504020013 46 336 0.0 3.0 0.00 0.20 0.00 77 1020.6
20260504015514 45 341 0.0 3.0 0.00 0.20 0.00 78 1020.6
20260504015017 45 314 0.0 3.0 0.00 0.20 0.00 79 1020.6
20260504014517 45 312 0.0 2.0 0.00 0.20 0.00 79 1020.6
20260504014011 44 309 0.0 2.0 0.00 0.20 0.00 80 1020.4
20260504013512 44 326 0.0 2.0 0.00 0.20 0.00 80 1020.6
20260504013011 44 313 0.0 1.0 0.00 0.20 0.00 79 1020.7
20260504012511 44 312 0.0 4.0 0.00 0.20 0.00 79 1020.7
20260504012011 44 311 0.0 4.0 0.00 0.20 0.00 79 1020.7
20260504011511 43 303 0.0 1.0 0.00 0.20 0.00 79 1020.7
20260504011011 43 302 0.0 0.0 0.00 0.20 0.00 79 1020.7
20260504010511 43 302 0.0 0.0 0.00 0.20 0.00 80 1020.6
20260504010010 43 303 0.0 0.0 0.00 0.20 0.00 79 1020.5
20260504005509 44 303 0.0 1.0 0.00 0.20 0.00 77 1020.6
20260504005009 44 302 0.0 2.0 0.00 0.20 0.00 77 1020.6
20260504004508 44 303 0.0 2.0 0.00 0.20 0.00 77 1020.6
20260504004008 45 302 0.0 1.0 0.00 0.20 0.00 77 1020.5
20260504003508 45 302 0.0 0.0 0.00 0.20 0.00 77 1020.5
20260504003007 44 302 0.0 0.0 0.00 0.20 0.00 77 1020.5
20260504002507 45 302 0.0 1.0 0.00 0.20 0.00 77 1020.5
20260504002007 44 303 0.0 1.0 0.00 0.20 0.00 78 1020.4
20260504001506 44 302 0.0 0.0 0.00 0.20 0.00 77 1020.5
20260504001005 45 303 0.0 1.0 0.00 0.20 0.00 76 1020.5
20260504000505 45 302 0.0 1.0 0.00 0.20 0.00 74 1020.6
20260504000003 45 302 0.0 2.0 0.00 0.20 0.00 74 1020.6
20260503235504 46 303 0.0 2.0 0.00 0.20 0.00 73 1020.6
20260503235004 46 302 0.0 3.0 0.00 0.20 0.00 73 1020.6
20260503234503 45 302 1.0 3.0 0.00 0.20 0.00 74 1020.6
20260503234002 45 298 0.0 2.0 0.00 0.20 0.00 74 1020.5
20260503233501 45 298 0.0 2.0 0.00 0.20 0.00 74 1020.5
20260503233001 45 306 0.0 2.0 0.00 0.20 0.00 73 1020.5
20260503232501 46 305 0.0 2.0 0.00 0.20 0.00 72 1020.4
20260503232101 46 306 0.0 1.0 0.00 0.20 0.00 72 1020.5
20260503231600 46 306 0.0 3.0 0.00 0.20 0.00 72 1020.5
20260503231101 46 306 0.0 3.0 0.00 0.20 0.00 72 1020.6
20260503230601 46 339 0.0 1.0 0.00 0.20 0.00 72 1020.5
20260503225558 46 339 1.0 4.0 0.00 0.20 0.00 73 1020.5
20260503225102 46 342 0.0 8.0 0.00 0.20 0.00 73 1020.6
20260503224558 46 342 2.0 8.0 0.00 0.20 0.00 73 1020.6
20260503224058 46 340 0.0 5.0 0.00 0.20 0.00 73 1020.6
20260503223557 46 319 0.0 5.0 0.00 0.20 0.00 73 1020.7
20260503223057 46 17 1.0 5.0 0.00 0.20 0.00 73 1020.6
20260503222556 46 333 1.0 4.0 0.00 0.20 0.00 73 1020.7
20260503222056 46 297 0.0 4.0 0.00 0.20 0.00 72 1020.6
20260503221556 46 278 1.0 3.0 0.00 0.20 0.00 72 1020.6
20260503221054 46 309 0.0 5.0 0.00 0.20 0.00 72 1020.7
20260503220553 46 265 0.0 5.0 0.00 0.20 0.00 71 1020.6
20260503220053 46 264 1.0 4.0 0.00 0.20 0.00 71 1020.6
20260503215552 46 334 1.0 4.0 0.00 0.20 0.00 71 1020.6
20260503215050 46 305 1.0 5.0 0.00 0.20 0.00 71 1020.6
20260503214556 46 360 1.0 5.0 0.00 0.20 0.00 70 1020.6
20260503214055 46 308 0.0 6.0 0.00 0.20 0.00 70 1020.5
20260503213549 46 320 1.0 6.0 0.00 0.20 0.00 70 1020.6
20260503213117 46 39 0.0 4.0 0.00 0.20 0.00 70 1020.7
20260503212548 47 39 1.0 4.0 0.00 0.20 0.00 69 1020.7
20260503212050 47 313 1.0 4.0 0.00 0.20 0.00 69 1020.7
20260503211613 46 281 1.0 3.0 0.00 0.20 0.00 70 1020.7
20260503211047 46 296 0.0 5.0 0.00 0.20 0.00 69 1020.7
20260503210545 47 298 2.0 6.0 0.00 0.20 0.00 69 1020.7
20260503210044 46 317 1.0 5.0 0.00 0.20 0.00 69 1020.7
20260503205544 47 325 2.0 5.0 0.00 0.20 0.20 69 1020.7
20260503205045 47 344 1.0 3.0 0.00 0.20 0.20 68 1020.6
20260503204559 47 355 1.0 5.0 0.00 0.20 0.20 68 1020.7
20260503204043 47 337 1.0 9.0 0.00 0.20 0.20 68 1020.8
20260503203542 47 350 2.0 13.0 0.00 0.20 0.20 68 1020.8
20260503203042 47 341 4.0 13.0 0.00 0.20 0.20 68 1020.9
20260503202542 47 343 2.0 9.0 0.00 0.20 0.20 67 1020.7
20260503202046 47 360 2.0 9.0 0.00 0.20 0.20 67 1020.8
20260503201543 48 360 4.0 11.0 0.00 0.20 0.20 67 1020.7
20260503201042 48 318 6.0 13.0 0.00 0.20 0.20 67 1020.7
20260503200541 48 40 3.0 14.0 0.00 0.20 0.20 67 1020.7
20260503200042 48 346 5.0 14.0 0.00 0.20 0.20 67 1020.8
20260503195541 48 341 5.0 16.0 0.00 0.20 0.20 67 1020.7
20260503195042 48 327 8.0 16.0 0.00 0.20 0.20 67 1020.7
20260503194542 48 33 7.0 12.0 0.00 0.20 0.20 67 1020.6
20260503194041 48 9 4.0 12.0 0.00 0.20 0.20 67 1020.6
20260503193541 48 360 5.0 10.0 0.00 0.20 0.20 67 1020.6
20260503193041 48 342 4.0 12.0 0.00 0.20 0.20 67 1020.7
20260503192541 48 312 4.0 16.0 0.00 0.20 0.20 67 1020.7
20260503192040 48 350 4.0 16.0 0.00 0.20 0.20 67 1020.6
20260503191555 48 337 5.0 14.0 0.00 0.20 0.20 68 1020.6
20260503191040 48 329 6.0 14.0 0.00 0.20 0.20 67 1020.6
20260503190538 48 310 5.0 13.0 0.00 0.20 0.20 68 1020.5
20260503190040 48 349 5.0 12.0 0.00 0.20 0.20 68 1020.6
20260503185539 48 307 3.0 11.0 0.00 0.20 0.20 68 1020.6
20260503185038 48 335 5.0 13.0 0.00 0.20 0.20 68 1020.6
20260503184546 48 346 6.0 13.0 0.00 0.20 0.20 68 1020.5
20260503184039 48 350 3.0 11.0 0.00 0.20 0.20 68 1020.3
20260503183535 48 292 3.0 12.0 0.00 0.20 0.20 67 1020.3
20260503183042 48 284 4.0 13.0 0.00 0.20 0.20 67 1020.1
20260503182534 48 355 6.0 16.0 0.00 0.20 0.20 68 1020.1
20260503182034 48 322 8.0 16.0 0.00 0.20 0.20 68 1019.9
20260503181534 48 297 3.0 14.0 0.00 0.20 0.20 68 1019.9
20260503181038 48 348 3.0 14.0 0.00 0.20 0.20 68 1019.9
20260503180533 48 343 4.0 14.0 0.00 0.20 0.20 69 1019.8
20260503180035 47 327 4.0 11.0 0.00 0.20 0.20 69 1019.6
20260503175534 48 323 3.0 11.0 0.00 0.20 0.20 69 1019.6
20260503175031 48 341 2.0 8.0 0.00 0.20 0.20 69 1019.6
20260503174541 48 335 1.0 16.0 0.00 0.20 0.20 68 1019.6
20260503174032 48 5 7.0 16.0 0.00 0.20 0.20 68 1019.6
20260503173530 48 355 3.0 10.0 0.00 0.20 0.20 69 1019.6
20260503173030 48 317 3.0 10.0 0.00 0.20 0.20 68 1019.4
20260503172528 48 319 3.0 14.0 0.00 0.20 0.20 68 1019.5
20260503172028 48 360 3.0 14.0 0.00 0.20 0.20 68 1019.3
20260503171533 48 321 1.0 10.0 0.00 0.20 0.20 68 1019.2
20260503171031 48 300 3.0 14.0 0.00 0.20 0.20 67 1019.2
20260503170528 48 263 5.0 14.0 0.00 0.20 0.20 66 1019.3
20260503150530 51 360 10.0 20.0 0.00 0.20 0.20 55 1018.5
20260503131019 52 340 10.0 20.0 0.00 0.20 0.20 66 1018.4
20260503130518 52 17 9.0 23.0 0.00 0.20 0.20 67 1018.5
20260503110511 51 17 8.0 18.0 0.00 0.20 0.20 69 1018.8